TimeCDT,TemperatureF,Dew PointF,Humidity,Sea Level PressureIn,VisibilityMPH,Wind Direction,Wind SpeedMPH,Gust SpeedMPH,PrecipitationIn,Events,Conditions,WindDirDegrees,DateUTC
12:53 AM,59.0,55.9,90,30.01,10.0,Calm,Calm,-,N/A,,Clear,0,2013-05-07 05:53:00
1:53 AM,60.1,57.0,90,30.02,10.0,WSW,4.6,-,N/A,,Clear,240,2013-05-07 06:53:00
2:53 AM,61.0,59.0,93,30.00,10.0,Calm,Calm,-,N/A,,Clear,0,2013-05-07 07:53:00
3:53 AM,61.0,59.0,93,30.01,10.0,WSW,3.5,-,N/A,,Clear,240,2013-05-07 08:53:00
4:53 AM,60.8,59.0,94,30.01,10.0,West,3.5,-,N/A,,Clear,260,2013-05-07 09:53:00
5:53 AM,60.1,57.9,93,30.02,9.0,West,3.5,-,N/A,,Clear,280,2013-05-07 10:53:00
6:53 AM,59.0,57.9,96,30.04,6.0,Calm,Calm,-,N/A,,Clear,0,2013-05-07 11:53:00
7:53 AM,62.1,60.1,93,30.05,8.0,Calm,Calm,-,N/A,,Clear,0,2013-05-07 12:53:00
8:53 AM,66.9,60.1,79,30.06,10.0,West,3.5,-,N/A,,Clear,280,2013-05-07 13:53:00
9:53 AM,73.9,60.1,62,30.07,10.0,NW,4.6,-,N/A,,Clear,320,2013-05-07 14:53:00
10:53 AM,77.0,55.9,48,30.06,10.0,SW,6.9,-,N/A,,Clear,230,2013-05-07 15:53:00
11:53 AM,80.1,55.0,42,30.06,10.0,SSW,5.8,-,N/A,,Clear,210,2013-05-07 16:53:00
12:53 PM,81.0,55.9,42,30.05,10.0,WSW,6.9,-,N/A,,Scattered Clouds,250,2013-05-07 17:53:00
1:53 PM,82.0,55.0,39,30.03,10.0,South,4.6,-,N/A,,Clear,190,2013-05-07 18:53:00
2:53 PM,82.9,57.0,41,30.00,10.0,SSW,10.4,-,N/A,,Clear,200,2013-05-07 19:53:00
3:53 PM,82.0,55.9,41,29.99,10.0,SSW,11.5,-,N/A,,Clear,200,2013-05-07 20:53:00
4:53 PM,80.1,55.9,43,29.98,10.0,South,11.5,-,N/A,,Clear,180,2013-05-07 21:53:00
5:53 PM,78.1,55.0,45,29.98,10.0,South,16.1,-,N/A,,Clear,180,2013-05-07 22:53:00
6:53 PM,75.0,55.9,51,29.98,10.0,South,11.5,-,N/A,,Clear,180,2013-05-07 23:53:00
7:53 PM,71.1,57.0,61,30.00,10.0,South,6.9,-,N/A,,Clear,190,2013-05-08 00:53:00
8:53 PM,66.0,59.0,78,30.01,10.0,South,5.8,-,N/A,,Clear,190,2013-05-08 01:53:00
9:53 PM,64.9,60.1,84,30.03,10.0,Calm,Calm,-,N/A,,Clear,0,2013-05-08 02:53:00
10:53 PM,63.0,60.1,90,30.03,10.0,South,4.6,-,N/A,,Clear,170,2013-05-08 03:53:00
11:53 PM,63.0,60.1,90,30.04,10.0,South,3.5,-,N/A,,Clear,170,2013-05-08 04:53:00